Location: Beuvrequen
(50.8014°N, 1.6652°E)
Time: 22:02:39
(UTC+00:00)

Cosmos 1727 Rocket - Pass Details

Date: 16 October 2021
Orbit: 960 x 997 km, 82.9° (Epoch: 04 December)

Event Time Altitude Azimuth Distance (km) Brightness Sun altitude
Rises 18:10:31 0° 348° (NNW) 3,692 7.2 -12.1°
Reaches altitude 10° 18:13:03 10° 347° (NNW) 2,734 6.5 -12.5°
Maximum altitude 18:19:16 70° 265° (W) 1,030 4.3 -13.5°
Drops below altitude 10° 18:25:23 10° 183° (S) 2,695 6.3 -14.4°
Sets 18:27:52 0° 181° (S) 3,634 7.0 -14.8°
